TimeEDT,TemperatureF,Dew PointF,Humidity,Sea Level PressureIn,VisibilityMPH,Wind Direction,Wind SpeedMPH,Gust SpeedMPH,PrecipitationIn,Events,Conditions,WindDirDegrees,DateUTC
12:15 AM,41.5,39.2,91,30.31,10.0,Calm,Calm,-,N/A,,Clear,0,2013-04-26 04:15:00
12:35 AM,40.1,38.7,95,30.31,10.0,NNW,3.5,-,N/A,,Clear,340,2013-04-26 04:35:00
12:55 AM,40.8,36.3,84,30.32,10.0,Calm,Calm,-,N/A,,Clear,0,2013-04-26 04:55:00
1:35 AM,41.9,34.9,76,30.33,10.0,Calm,Calm,-,N/A,,Clear,0,2013-04-26 05:35:00
1:55 AM,39.7,36.3,88,30.33,10.0,Calm,Calm,-,N/A,,Clear,0,2013-04-26 05:55:00
2:15 AM,39.4,37.4,93,30.33,10.0,Calm,Calm,-,N/A,,Clear,0,2013-04-26 06:15:00
2:35 AM,37.6,35.8,93,30.33,10.0,Calm,Calm,-,N/A,,Clear,0,2013-04-26 06:35:00
2:55 AM,37.6,36.1,95,30.33,10.0,Calm,Calm,-,N/A,,Clear,0,2013-04-26 06:55:00
3:15 AM,37.4,36.1,95,30.33,10.0,Calm,Calm,-,N/A,,Clear,0,2013-04-26 07:15:00
3:35 AM,37.0,36.0,96,30.33,7.0,Calm,Calm,-,N/A,,Clear,0,2013-04-26 07:35:00
3:55 AM,35.8,35.1,97,30.33,7.0,Calm,Calm,-,N/A,,Clear,0,2013-04-26 07:55:00
4:15 AM,36.1,35.6,98,30.34,7.0,Calm,Calm,-,N/A,,Clear,0,2013-04-26 08:15:00
4:35 AM,34.9,34.3,98,30.34,7.0,Calm,Calm,-,N/A,,Clear,0,2013-04-26 08:35:00
4:55 AM,34.2,33.6,98,30.35,7.0,Calm,Calm,-,N/A,,Clear,0,2013-04-26 08:55:00
5:15 AM,33.8,33.1,97,30.35,7.0,Calm,Calm,-,N/A,,Clear,0,2013-04-26 09:15:00
5:35 AM,33.8,33.4,99,30.36,7.0,Calm,Calm,-,N/A,,Clear,0,2013-04-26 09:35:00
5:55 AM,32.9,32.5,99,30.36,5.0,Calm,Calm,-,N/A,,Clear,0,2013-04-26 09:55:00
6:15 AM,33.6,33.1,98,30.36,7.0,Calm,Calm,-,N/A,,Clear,0,2013-04-26 10:15:00
6:35 AM,32.0,31.8,99,30.38,5.0,Calm,Calm,-,N/A,,Clear,0,2013-04-26 10:35:00
6:55 AM,32.9,32.7,99,30.39,4.0,Calm,Calm,-,N/A,,Clear,0,2013-04-26 10:55:00
7:15 AM,33.3,33.1,99,30.40,5.0,Calm,Calm,-,N/A,,Clear,0,2013-04-26 11:15:00
7:35 AM,36.9,36.9,100,30.41,5.0,Calm,Calm,-,N/A,,Clear,0,2013-04-26 11:35:00
7:55 AM,40.8,40.5,99,30.42,10.0,Calm,Calm,-,N/A,,Clear,0,2013-04-26 11:55:00
8:15 AM,43.9,39.9,86,30.43,10.0,Calm,Calm,-,N/A,,Clear,0,2013-04-26 12:15:00
8:35 AM,45.1,39.9,82,30.44,10.0,Calm,Calm,-,N/A,,Clear,0,2013-04-26 12:35:00
8:55 AM,48.0,39.6,73,30.45,10.0,Calm,Calm,-,N/A,,Clear,0,2013-04-26 12:55:00
9:15 AM,51.6,38.7,61,30.45,10.0,Calm,Calm,-,N/A,,Clear,0,2013-04-26 13:15:00
9:35 AM,53.8,39.6,59,30.45,10.0,Calm,Calm,-,N/A,,Clear,0,2013-04-26 13:35:00
9:55 AM,56.8,37.6,49,30.45,10.0,Calm,Calm,-,N/A,,Clear,0,2013-04-26 13:55:00
10:15 AM,58.8,37.0,44,30.45,10.0,Calm,Calm,-,N/A,,Clear,0,2013-04-26 14:15:00
10:35 AM,60.8,35.4,39,30.45,10.0,ENE,6.9,-,N/A,,Clear,60,2013-04-26 14:35:00
10:55 AM,60.8,33.6,36,30.44,10.0,North,3.5,-,N/A,,Clear,10,2013-04-26 14:55:00
11:15 AM,62.1,33.1,34,30.44,10.0,ESE,4.6,-,N/A,,Clear,110,2013-04-26 15:15:00
11:35 AM,63.0,31.5,31,30.43,10.0,SE,3.5,-,N/A,,Clear,130,2013-04-26 15:35:00
11:55 AM,63.1,31.8,31,30.42,10.0,Calm,Calm,-,N/A,,Clear,0,2013-04-26 15:55:00
12:15 PM,64.4,32.2,30,30.42,10.0,North,4.6,-,N/A,,Clear,10,2013-04-26 16:15:00
12:35 PM,64.6,30.7,28,30.42,10.0,North,4.6,-,N/A,,Clear,10,2013-04-26 16:35:00
12:55 PM,65.1,31.8,29,30.41,10.0,Calm,Calm,-,N/A,,Clear,0,2013-04-26 16:55:00
1:15 PM,65.8,31.6,28,30.42,10.0,Calm,Calm,-,N/A,,Clear,0,2013-04-26 17:15:00
1:35 PM,65.8,32.2,29,30.41,10.0,West,3.5,-,N/A,,Clear,260,2013-04-26 17:35:00
1:55 PM,65.8,30.4,27,30.41,5.0,Calm,Calm,-,N/A,,Haze,0,2013-04-26 17:55:00
2:15 PM,67.1,30.9,26,30.40,2.5,SSE,3.5,-,N/A,,Haze,160,2013-04-26 18:15:00
2:35 PM,68.2,32.5,27,30.40,10.0,WSW,4.6,-,N/A,,Clear,240,2013-04-26 18:35:00
2:55 PM,68.7,32.7,26,30.39,10.0,South,5.8,-,N/A,,Clear,180,2013-04-26 18:55:00
3:15 PM,68.7,32.0,26,30.39,10.0,Calm,Calm,-,N/A,,Clear,0,2013-04-26 19:15:00
3:35 PM,68.9,32.0,25,30.38,10.0,WSW,5.8,-,N/A,,Clear,240,2013-04-26 19:35:00
3:55 PM,68.4,31.5,25,30.36,10.0,Calm,Calm,-,N/A,,Clear,0,2013-04-26 19:55:00
4:15 PM,68.0,31.6,26,30.36,10.0,Calm,Calm,-,N/A,,Clear,0,2013-04-26 20:15:00
4:35 PM,69.3,32.2,25,30.35,10.0,SW,3.5,-,N/A,,Clear,220,2013-04-26 20:35:00
4:55 PM,68.4,29.5,23,30.34,10.0,Calm,Calm,-,N/A,,Clear,0,2013-04-26 20:55:00
5:15 PM,68.9,31.3,25,30.33,10.0,Calm,Calm,-,N/A,,Clear,0,2013-04-26 21:15:00
5:35 PM,68.2,32.0,26,30.33,10.0,Calm,Calm,-,N/A,,Clear,0,2013-04-26 21:35:00
5:55 PM,68.0,32.4,27,30.33,10.0,Calm,Calm,-,N/A,,Clear,0,2013-04-26 21:55:00
6:15 PM,67.5,33.4,28,30.33,10.0,Calm,Calm,-,N/A,,Clear,0,2013-04-26 22:15:00
6:35 PM,66.6,37.6,34,30.33,10.0,Calm,Calm,-,N/A,,Clear,0,2013-04-26 22:35:00
6:55 PM,63.5,47.3,56,30.34,10.0,Calm,Calm,-,N/A,,Clear,0,2013-04-26 22:55:00
7:15 PM,61.0,50.0,67,30.35,10.0,Calm,Calm,-,N/A,,Clear,0,2013-04-26 23:15:00
7:35 PM,59.2,48.2,67,30.34,10.0,Calm,Calm,-,N/A,,Clear,0,2013-04-26 23:35:00
7:55 PM,57.2,49.5,75,30.35,10.0,Calm,Calm,-,N/A,,Clear,0,2013-04-26 23:55:00
8:15 PM,56.5,48.9,76,30.36,10.0,Calm,Calm,-,N/A,,Clear,0,2013-04-27 00:15:00
8:35 PM,55.8,46.9,72,30.36,10.0,Calm,Calm,-,N/A,,Clear,0,2013-04-27 00:35:00
8:55 PM,54.9,48.0,78,30.37,10.0,Calm,Calm,-,N/A,,Clear,0,2013-04-27 00:55:00
9:15 PM,53.4,46.6,78,30.38,10.0,Calm,Calm,-,N/A,,Clear,0,2013-04-27 01:15:00
9:35 PM,52.3,47.1,82,30.38,10.0,Calm,Calm,-,N/A,,Clear,0,2013-04-27 01:35:00
9:55 PM,51.8,47.5,85,30.37,10.0,Calm,Calm,-,N/A,,Clear,0,2013-04-27 01:55:00
10:15 PM,51.6,47.3,85,30.37,10.0,Calm,Calm,-,N/A,,Clear,0,2013-04-27 02:15:00
10:35 PM,51.6,47.7,86,30.37,10.0,Calm,Calm,-,N/A,,Clear,0,2013-04-27 02:35:00
10:55 PM,51.1,47.5,87,30.37,10.0,Calm,Calm,-,N/A,,Clear,0,2013-04-27 02:55:00
11:15 PM,51.3,48.2,89,30.37,10.0,Calm,Calm,-,N/A,,Clear,0,2013-04-27 03:15:00
11:35 PM,50.2,47.8,92,30.36,10.0,Calm,Calm,-,N/A,,Clear,0,2013-04-27 03:35:00
11:55 PM,51.8,47.7,86,30.36,10.0,Calm,Calm,-,N/A,,Clear,0,2013-04-27 03:55:00